Toledo Metcalf, OH

2:09 AM EDT on July 22, 2017 (GMT -0400)
Metcalf

Weather History for KTDZ - July, 2013

Change the Weather History Date:

Saturday, July 20, 2013

  Actual Average (KTOL) Record (KTOL)
Temperature  
Mean Temperature 78 °F -  
Max Temperature 87 °F 83 °F 102 °F (1930)
Min Temperature 71 °F 63 °F 48 °F (1965)
Cooling Degree Days 14    
Growing Degree Days 28 (Base 50)    
Moisture  
Dew Point 70 °F    
Average Humidity 81    
Maximum Humidity 94    
Minimum Humidity 53    
Precipitation  
Precipitation 0.87 in - - ()
Sea Level Pressure  
Sea Level Pressure 29.83 in    
Wind  
Wind Speed 13 mph (WSW)    
Max Wind Speed 31 mph    
Max Gust Speed 46 mph    
Visibility 9 miles    
Events Rain    
Averages and records for this station are not official NWS values.
T = Trace of Precipitation, MM = Missing Value Source: NWS Daily Summary

Daily Weather History Graph

Daily Weather History Graph

Search for Another Location

Airport or City:

Trip Planner

Search our weather history database for the weather conditions in past years. The results will help you decide how hot, cold, wet, or windy it might be!

Date:

Astronomy

Jul. 20, 2013 Rise Set
Actual Time 6:17 AM EDT 9:02 PM EDT
Civil Twilight 5:44 AM EDT 9:35 PM EDT
Nautical Twilight 5:04 AM EDT 10:15 PM EDT
Astronomical Twilight 4:17 AM EDT 11:02 PM EDT
Moon 7:04 PM EDT (7/20) 3:56 AM EDT (7/20)
Length of Visible Light 15h 50m
Length of Day
14h 45m
Waxing Gibbous, 93% of the Moon is Illuminated
Jul 20
Waxing Gibbous
Jul 22
Full
Jul 29
Last Quarter
Aug 6
New
Aug 14
First Quarter

Hourly Weather History & Observations

Time (EDT) Temp. Heat Index Dew Point Humidity Pressure Visibility Wind Dir Wind Speed Gust Speed Precip Events Conditions
12:53 AM 82.0 °F 86.7 °F 72.0 °F 71% 29.79 in 9.0 mi SW 16.1 mph 23.0 mph N/A   Mostly Cloudy
1:53 AM 82.0 °F 86.7 °F 72.0 °F 71% 29.78 in 9.0 mi SW 11.5 mph - N/A   Mostly Cloudy
2:40 AM 75.2 °F - 68.0 °F 78% 29.82 in 10.0 mi NNW 17.3 mph 27.6 mph N/A   Overcast
2:49 AM 75.2 °F - 68.0 °F 78% 29.81 in 10.0 mi North 16.1 mph 23.0 mph N/A   Mostly Cloudy
2:53 AM 75.9 °F - 66.9 °F 74% 29.79 in 10.0 mi North 11.5 mph 21.9 mph N/A   Overcast
3:48 AM 71.6 °F - 69.8 °F 94% 29.81 in 1.5 mi NNW 31.1 mph 42.6 mph 0.27 in Rain Heavy Rain
3:53 AM 71.1 °F - 69.1 °F 93% 29.80 in 0.8 mi WNW 28.8 mph 46.0 mph 0.47 in Rain Heavy Rain
3:58 AM 71.6 °F - 69.8 °F 94% 29.79 in 1.0 mi WNW 16.1 mph 46.0 mph 0.12 in Rain Heavy Rain
4:07 AM 71.6 °F - 69.8 °F 94% 29.78 in 2.0 mi West 15.0 mph - 0.25 in Rain Heavy Rain
4:11 AM 71.6 °F - 69.8 °F 94% 29.78 in 3.0 mi WSW 11.5 mph - 0.26 in Rain Heavy Rain
4:27 AM 71.6 °F - 69.8 °F 94% 29.80 in 7.0 mi SW 15.0 mph - 0.29 in Rain Light Rain
4:53 AM 72.0 °F - 69.1 °F 91% 29.75 in 7.0 mi WSW 11.5 mph 20.7 mph 0.34 in Rain Light Rain
5:53 AM 73.0 °F - 70.0 °F 90% 29.78 in 10.0 mi WSW 11.5 mph - 0.05 in Rain Light Rain
6:53 AM 73.0 °F - 70.0 °F 90% 29.81 in 10.0 mi SSW 8.1 mph - 0.00 in Rain Light Rain
7:01 AM 71.6 °F - 69.8 °F 94% 29.83 in 10.0 mi SSW 8.1 mph - N/A   Overcast
7:53 AM 73.0 °F - 70.0 °F 90% 29.82 in 10.0 mi SSW 6.9 mph - N/A   Overcast
8:46 AM 73.4 °F - 69.8 °F 88% 29.85 in 10.0 mi SSW 9.2 mph - N/A   Mostly Cloudy
8:53 AM 73.0 °F - 70.0 °F 90% 29.83 in 10.0 mi SSW 5.8 mph - N/A   Overcast
9:53 AM 73.0 °F - 70.0 °F 90% 29.85 in 10.0 mi SSW 10.4 mph - N/A   Overcast
10:35 AM 75.2 °F - 71.6 °F 89% 29.86 in 10.0 mi WSW 8.1 mph - N/A   Scattered Clouds
10:44 AM 75.2 °F - 71.6 °F 89% 29.86 in 10.0 mi WSW 9.2 mph - N/A   Scattered Clouds
10:53 AM 75.9 °F - 72.0 °F 87% 29.84 in 10.0 mi WSW 9.2 mph - N/A   Partly Cloudy
11:15 AM 78.8 °F - 71.6 °F 78% 29.86 in 10.0 mi SW 8.1 mph - N/A   Mostly Cloudy
11:53 AM 78.1 °F - 72.0 °F 81% 29.85 in 10.0 mi SW 9.2 mph - N/A   Overcast
12:12 PM 80.6 °F 85.4 °F 73.4 °F 79% 29.86 in 10.0 mi West 5.8 mph - N/A   Overcast
12:27 PM 80.6 °F 84.6 °F 71.6 °F 74% 29.86 in 10.0 mi WSW 9.2 mph - N/A   Scattered Clouds
12:53 PM 82.0 °F 86.7 °F 72.0 °F 71% 29.84 in 10.0 mi WSW 9.2 mph - N/A   Partly Cloudy
1:53 PM 84.0 °F 89.0 °F 71.1 °F 65% 29.83 in 10.0 mi WSW 9.2 mph - N/A   Scattered Clouds
2:53 PM 84.9 °F 90.1 °F 71.1 °F 63% 29.83 in 10.0 mi West 10.4 mph - N/A   Mostly Cloudy
3:53 PM 86.0 °F 88.8 °F 66.9 °F 53% 29.82 in 10.0 mi WNW 10.4 mph - N/A   Scattered Clouds
4:53 PM 82.0 °F 86.7 °F 72.0 °F 71% 29.83 in 9.0 mi West 8.1 mph - 0.01 in Rain Light Rain
5:53 PM 82.9 °F 88.0 °F 72.0 °F 69% 29.83 in 10.0 mi ENE 5.8 mph - 0.00 in   Mostly Cloudy
6:53 PM 79.0 °F - 70.0 °F 74% 29.84 in 10.0 mi East 5.8 mph - N/A   Partly Cloudy
7:53 PM 79.0 °F - 70.0 °F 74% 29.85 in 10.0 mi Variable 3.5 mph - N/A   Clear
8:53 PM 77.0 °F - 70.0 °F 79% 29.86 in 10.0 mi Calm Calm - N/A   Clear
9:53 PM 75.9 °F - 69.1 °F 79% 29.89 in 10.0 mi SW 3.5 mph - N/A   Clear
10:53 PM 75.0 °F - 66.9 °F 76% 29.91 in 10.0 mi NNW 6.9 mph - N/A   Scattered Clouds
11:53 PM 73.9 °F - 63.0 °F 68% 29.91 in 10.0 mi North 5.8 mph - N/A   Clear